| time (UTC) | temp F | wind direction | speed knots | gust knots | rain 1hr in | rain 24hr in | rain mn in | humidity % | barometer mb |
| 20260502193857 | 60 | 288 | 14.8 | 20.9 | 0.00 | 0.00 | 0.00 | 39 | 1011.6 |
| 20260502191856 | 60 | 5 | 14.8 | 22.6 | 0.00 | 0.00 | 0.00 | 39 | 1011.7 |
| 20260502185912 | 60 | 301 | 15.6 | 20.9 | 0.00 | 0.00 | 0.00 | 40 | 1011.5 |
| 20260502184400 | 60 | 18 | 15.6 | 21.7 | 0.00 | 0.00 | 0.00 | 40 | 1011.3 |
| 20260502182859 | 59 | 294 | 14.8 | 24.3 | 0.00 | 0.00 | 0.00 | 41 | 1011.7 |
| 20260502180916 | 59 | 300 | 14.8 | 20.9 | 0.00 | 0.00 | 0.00 | 41 | 1011.4 |
| 20260502170352 | 58 | 297 | 14.8 | 24.3 | 0.00 | 0.00 | 0.00 | 54 | 1011.2 |
| 20260502162856 | 56 | 302 | 13.9 | 20.0 | 0.00 | 0.00 | 0.00 | 58 | 1011.1 |
| 20260502160912 | 56 | 10 | 11.3 | 17.4 | 0.00 | 0.00 | 0.00 | 58 | 1010.9 |
| 20260502151356 | 54 | 288 | 12.2 | 20.9 | 0.00 | 0.00 | 0.00 | 64 | 1010.4 |
| 20260502122404 | 44 | 315 | 14.8 | 20.9 | 0.00 | 0.00 | 0.00 | 75 | 1007.6 |
| 20260502120408 | 42 | 311 | 13.9 | 19.1 | 0.00 | 0.00 | 0.00 | 77 | 1007.3 |
| 20260502114853 | 43 | 306 | 12.2 | 19.1 | 0.00 | 0.00 | 0.00 | 77 | 1007.4 |
| 20260502113348 | 43 | 306 | 9.6 | 16.5 | 0.00 | 0.00 | 0.00 | 76 | 1007.4 |
| 20260502111409 | 44 | 273 | 8.7 | 13.9 | 0.00 | 0.00 | 0.00 | 76 | 1007.2 |
| 20260502105857 | 45 | 274 | 7.8 | 10.4 | 0.00 | 0.00 | 0.00 | 75 | 1007.2 |
| 20260502103914 | 46 | 269 | 6.1 | 8.7 | 0.00 | 0.00 | 0.00 | 73 | 1007.0 |
| 20260502101850 | 47 | 273 | 5.2 | 8.7 | 0.00 | 0.00 | 0.00 | 70 | 1007.1 |
| 20260502090852 | 43 | 249 | 0.0 | 1.7 | 0.00 | 0.00 | 0.00 | 71 | 1006.7 |
| 20260502070858 | 49 | 150 | 2.6 | 6.1 | 0.00 | 0.00 | 0.00 | 54 | 1007.2 |
| 20260502064920 | 50 | 109 | 1.7 | 3.5 | 0.00 | 0.00 | 0.00 | 54 | 1007.5 |
| 20260502063414 | 50 | 98 | 0.9 | 4.3 | 0.00 | 0.00 | 0.00 | 53 | 1007.8 |
| 20260502061910 | 51 | 91 | 0.0 | 3.5 | 0.00 | 0.00 | 0.00 | 52 | 1008.3 |
| 20260502055925 | 51 | 103 | 0.0 | 3.5 | 0.00 | 0.00 | 0.00 | 51 | 1008.7 |
| 20260502054409 | 51 | 94 | 0.9 | 2.6 | 0.00 | 0.00 | 0.00 | 52 | 1008.7 |
| 20260502052412 | 49 | 92 | 1.7 | 3.5 | 0.00 | 0.00 | 0.00 | 57 | 1008.9 |
| 20260502050419 | 51 | 86 | 1.7 | 5.2 | 0.00 | 0.00 | 0.00 | 52 | 1008.9 |
| 20260502044916 | 52 | 119 | 0.0 | 1.7 | 0.00 | 0.00 | 0.00 | 48 | 1009.1 |
| 20260502042924 | 52 | 119 | 0.9 | 1.7 | 0.00 | 0.00 | 0.00 | 51 | 1009.1 |
| 20260502041357 | 51 | 110 | 0.9 | 2.6 | 0.00 | 0.00 | 0.00 | 50 | 1009.2 |
| 20260502035424 | 51 | 143 | 0.0 | 2.6 | 0.00 | 0.00 | 0.00 | 49 | 1009.6 |
| 20260502033917 | 52 | 170 | 0.9 | 3.5 | 0.00 | 0.00 | 0.00 | 46 | 1009.6 |
| 20260502032417 | 53 | 147 | 0.9 | 2.6 | 0.00 | 0.00 | 0.00 | 43 | 1009.7 |
| 20260502030914 | 53 | 123 | 0.9 | 2.6 | 0.00 | 0.00 | 0.00 | 42 | 1009.7 |
| 20260502024917 | 54 | 134 | 0.9 | 2.6 | 0.00 | 0.00 | 0.00 | 42 | 1010.1 |
| 20260502023358 | 54 | 131 | 0.9 | 2.6 | 0.00 | 0.00 | 0.00 | 43 | 1010.3 |
| 20260502021419 | 56 | 132 | 1.7 | 3.5 | 0.00 | 0.00 | 0.00 | 37 | 1010.5 |
| 20260502015916 | 57 | 171 | 0.0 | 1.7 | 0.00 | 0.00 | 0.00 | 40 | 1010.7 |
| 20260502013919 | 60 | 167 | 0.9 | 2.6 | 0.00 | 0.00 | 0.00 | 35 | 1010.9 |
| 20260502012412 | 62 | 155 | 0.0 | 2.6 | 0.00 | 0.00 | 0.00 | 32 | 1011.1 |
| 20260502010420 | 64 | 166 | 2.6 | 4.3 | 0.00 | 0.00 | 0.00 | 29 | 1011.2 |
| 20260502004910 | 65 | 185 | 3.5 | 8.7 | 0.00 | 0.00 | 0.00 | 27 | 1011.2 |
| 20260502002420 | 66 | 174 | 5.2 | 8.7 | 0.00 | 0.00 | 0.00 | 28 | 1011.2 |
| 20260502000909 | 67 | 193 | 7.0 | 12.2 | 0.00 | 0.00 | 0.00 | 27 | 1011.3 |
| 20260501235405 | 67 | 194 | 7.0 | 11.3 | 0.00 | 0.00 | 0.00 | 27 | 1011.3 |
| 20260501233404 | 67 | 196 | 9.6 | 13.0 | 0.00 | 0.00 | 0.00 | 25 | 1011.5 |
| 20260501231421 | 67 | 187 | 7.0 | 11.3 | 0.00 | 0.00 | 0.00 | 28 | 1011.7 |
| 20260501225418 | 67 | 200 | 7.8 | 12.2 | 0.00 | 0.00 | 0.00 | 26 | 1012.0 |
| 20260501223415 | 67 | 169 | 8.7 | 12.2 | 0.00 | 0.00 | 0.00 | 26 | 1012.2 |
| 20260501221906 | 67 | 211 | 5.2 | 13.0 | 0.00 | 0.00 | 0.00 | 28 | 1012.4 |
| 20260501215919 | 67 | 235 | 6.1 | 10.4 | 0.00 | 0.00 | 0.00 | 29 | 1012.6 |
| 20260501213914 | 66 | 211 | 7.0 | 15.6 | 0.00 | 0.00 | 0.00 | 28 | 1012.9 |
| 20260501212410 | 66 | 229 | 7.0 | 10.4 | 0.00 | 0.00 | 0.00 | 29 | 1013.1 |
| 20260501210419 | 66 | 179 | 5.2 | 13.0 | 0.00 | 0.00 | 0.00 | 29 | 1013.5 |
| 20260501204907 | 66 | 217 | 7.0 | 14.8 | 0.00 | 0.00 | 0.00 | 30 | 1013.7 |
| 20260501202912 | 65 | 209 | 6.1 | 12.2 | 0.00 | 0.00 | 0.00 | 31 | 1013.6 |
| 20260501201411 | 64 | 194 | 4.3 | 13.9 | 0.00 | 0.00 | 0.00 | 30 | 1014.0 |
| 20260501195414 | 65 | 200 | 4.3 | 16.5 | 0.00 | 0.00 | 0.00 | 30 | 1014.2 |